{"data":{"norad_id":56012,"intl_designator":"2023-042AC","name":"STARLINK-5940","alt_names":[],"object_type":"PAYLOAD","status":"ACTIVE","operator":null,"country":"US","launch_date":"2023-03-24","launch_site_code":"AFETR","launch_vehicle":null,"mission":null,"orbit_class":"UNKNOWN","rcs_meters":null,"size_class":null,"mass_kg":null,"dimensions":null,"purposes":["comms"],"wikipedia_slug":null,"has_3d_model":false,"image_url":null,"decayed_at":null,"tle_current":{"epoch":"2026-09-20T19:53:08.068704Z","epoch_age_seconds":77788,"freshness":"FRESH","line1":"1 56012U 23042AC  26263.82856561 -.00000567  00000+0 -11101-4 0  9992","line2":"2 56012  43.0018  22.8321 0001187 274.0284  86.0432 15.27575473192881","mean_motion":15.27575473,"eccentricity":0.0001187,"inclination_deg":43.0018,"raan_deg":22.8321,"arg_perigee_deg":274.0284,"mean_anomaly_deg":86.0432,"bstar":-1.1101e-5,"rev_number":19288,"period_min":94.267028075018,"perigee_km":482.24822714107,"apogee_km":483.87707593835,"semimajor_km":6861.1996515397,"source":"CELESTRAK","updated_at":"2026-09-21T09:00:33.354518Z"}}}